Theta_e
350 348 346 343 342 341 340 338 337 338 335 330 331 331 333 330 318 313 314 316 319 321 319 319 322 323 325 327 332 336 340 341 340 341 342 343 343 343 343 343 344 344 344 343 343 342 341 341 341 340 340 337 333 332 333 334 335 337 339 340 341 341 341 341 342 342 342 341 342 342 341 341 340 339 339 338 338 338 338 338 338 338 339 339 339
349 349 347 343 340 340 340 338 338 339 335 331 332 332 334 329 318 313 314 316 320 321 319 320 323 325 328 333 337 340 342 342 342 342 343 343 343 343 343 343 343 343 343 343 342 341 341 341 340 340 339 336 332 331 331 332 334 336 338 339 339 339 340 340 341 341 341 341 341 340 341 341 340 340 339 338 338 337 337 337 337 338 339 339 339
347 349 347 344 340 340 339 338 339 339 335 332 333 332 334 330 318 314 315 317 321 321 320 322 325 328 333 338 340 341 342 342 342 343 343 343 343 343 343 343 343 342 341 341 340 340 339 339 339 340 339 334 330 329 329 332 333 336 339 339 339 338 337 337 338 339 340 340 340 340 340 340 339 339 338 338 337 337 336 336 336 337 338 337 337
347 348 347 346 340 340 339 338 340 340 336 334 334 332 334 330 319 315 316 318 321 323 322 323 328 332 337 340 341 342 342 342 343 343 343 343 343 343 343 342 342 339 338 336 334 332 330 331 332 335 339 335 327 327 329 332 334 336 338 339 338 337 336 336 335 337 339 339 339 339 340 340 340 339 338 338 337 337 336 336 336 336 336 336 336
348 348 348 347 341 340 339 339 341 340 338 335 334 333 335 330 319 316 318 319 322 326 327 327 332 336 339 341 341 342 342 342 343 344 344 344 344 343 342 341 338 332 328 328 327 326 326 327 325 325 332 334 327 324 329 332 334 336 338 338 338 338 338 338 337 337 337 337 338 338 339 340 340 339 338 338 337 336 336 335 336 335 334 334 335
348 347 348 346 342 341 340 341 341 341 339 336 334 334 335 329 319 317 319 320 323 330 333 332 335 338 340 342 342 342 342 343 343 343 344 343 343 343 342 340 335 330 328 328 329 330 331 330 328 324 322 329 330 324 328 332 333 335 336 337 337 337 337 337 337 337 335 333 334 337 338 338 339 339 338 338 337 336 335 334 334 334 333 333 334
347 347 348 346 342 341 341 341 341 341 340 336 335 334 336 329 319 318 320 320 325 333 336 336 337 339 340 341 342 342 342 343 343 343 343 343 343 343 341 340 338 335 335 335 335 334 333 333 332 330 324 326 331 325 328 333 332 333 333 333 332 331 332 333 333 335 335 332 332 335 336 337 338 338 338 337 337 336 334 333 333 333 331 331 331
347 348 347 345 342 342 341 341 341 342 339 335 335 335 335 328 318 319 321 321 326 334 336 336 339 340 340 340 342 342 342 342 342 342 342 342 341 341 340 338 337 335 334 334 335 335 334 334 332 332 328 326 329 326 326 330 331 331 330 329 327 328 332 334 332 333 334 331 331 333 335 336 337 337 337 337 336 335 334 333 333 332 330 329 328
346 346 345 343 342 342 341 341 342 341 338 335 336 336 335 329 318 319 322 321 327 335 336 337 340 341 340 340 342 342 342 342 342 342 342 341 340 340 339 337 335 332 330 331 333 335 334 333 331 329 325 322 326 325 322 324 327 328 326 326 329 332 333 334 333 333 332 331 331 333 335 336 336 336 335 335 334 333 333 333 332 331 331 329 328
345 345 343 341 342 342 340 341 342 340 337 336 336 335 336 329 317 318 321 322 327 334 336 337 340 341 340 341 342 343 343 343 343 343 342 341 340 340 339 337 334 329 328 332 334 335 333 330 328 324 319 317 321 321 319 320 322 323 323 327 332 333 333 333 333 333 332 330 330 333 335 336 335 335 335 334 333 332 332 332 331 331 331 331 331
344 343 341 340 341 341 341 342 342 340 337 336 336 335 336 329 317 318 320 322 328 333 336 338 341 341 341 343 343 343 343 344 343 343 342 341 341 340 339 337 332 328 327 330 332 330 325 321 319 316 314 316 318 318 319 320 321 322 325 331 334 332 333 333 332 333 332 331 330 333 335 335 336 336 335 334 333 332 331 330 330 329 329 330 330
342 341 339 339 342 342 343 344 342 340 338 337 336 336 335 327 317 319 323 326 331 335 337 339 341 341 342 343 343 343 343 343 343 343 342 341 340 339 338 335 330 328 327 328 327 321 316 315 314 312 312 314 316 319 320 321 323 326 331 333 333 331 332 332 331 332 331 330 330 332 334 334 334 335 334 333 333 332 331 331 330 329 329 329 329
339 338 337 339 343 344 344 343 341 340 338 337 336 336 333 324 319 323 328 330 334 337 338 339 340 340 341 342 342 343 343 343 343 342 342 340 340 339 337 334 329 328 328 328 323 316 314 313 312 311 312 315 317 320 321 324 328 331 333 333 333 332 331 331 330 330 330 328 328 332 334 333 333 333 334 333 333 332 331 330 330 329 329 329 328
338 338 339 341 345 345 344 343 341 339 338 337 336 335 329 322 322 328 333 335 337 337 338 339 340 341 341 341 342 342 342 343 342 342 341 340 339 338 337 333 329 328 328 328 324 316 313 312 310 311 314 317 320 322 324 328 331 333 333 333 334 332 331 331 330 330 330 329 329 332 334 334 333 333 334 333 332 331 330 330 329 329 329 328 327
340 341 343 344 346 345 343 341 340 339 338 338 336 332 325 322 326 331 336 338 337 337 338 339 340 341 341 341 342 342 342 342 342 342 340 340 339 338 335 332 328 328 328 329 326 318 313 312 311 314 318 322 324 326 329 331 332 333 333 334 334 332 331 331 331 331 330 329 330 331 332 333 332 333 333 332 332 331 330 329 329 328 329 329 328
342 343 345 345 345 344 343 341 340 339 338 337 333 326 322 324 330 333 335 337 337 337 337 339 341 341 341 341 341 341 341 342 342 342 340 339 339 338 335 330 328 328 328 329 328 320 313 312 312 318 325 327 329 330 331 332 333 333 334 335 335 333 332 332 332 329 327 328 328 329 331 331 331 332 332 331 331 331 330 330 329 328 329 328 328
342 344 344 343 344 343 342 341 340 339 338 335 331 325 323 328 333 334 333 335 338 337 336 339 340 341 341 341 340 340 340 341 341 340 341 339 339 338 335 330 328 328 329 329 329 324 316 312 314 322 330 330 331 332 332 333 333 333 334 335 334 333 333 332 331 327 324 325 326 327 329 331 331 332 331 331 331 331 330 331 329 328 327 327 328
341 342 342 342 343 343 342 341 340 338 337 335 333 329 326 329 332 331 330 334 338 337 337 338 338 340 340 340 340 340 340 340 341 340 339 339 339 338 336 330 328 329 329 329 330 327 319 313 314 323 331 331 331 332 332 333 332 334 334 334 334 333 332 332 331 328 326 325 326 327 329 330 331 331 331 331 332 331 330 329 328 327 327 328 329
341 340 340 341 342 342 341 340 339 337 336 335 334 332 328 327 327 327 329 334 338 338 337 336 337 338 338 339 339 339 340 340 340 340 339 339 338 338 337 332 328 330 330 330 330 329 322 314 314 322 329 331 331 333 333 333 333 335 334 334 333 332 332 332 331 330 328 325 326 328 330 331 331 332 332 331 331 331 329 328 327 327 328 329 329
342 341 341 341 341 340 339 338 336 335 335 333 332 332 332 330 328 327 329 335 338 338 337 336 336 336 338 338 339 339 338 339 339 339 338 337 337 337 338 334 329 329 330 331 330 330 326 317 313 319 328 331 332 333 333 333 334 335 334 334 333 332 332 332 331 330 328 327 328 330 331 332 332 333 333 331 331 329 328 328 327 326 328 328 328
342 342 342 341 340 339 337 335 333 332 331 328 329 332 335 334 333 331 331 334 336 337 337 336 336 337 338 338 338 338 337 337 337 337 337 336 336 335 337 336 331 329 330 331 331 330 328 322 314 315 323 329 332 332 333 333 335 335 335 335 334 332 332 332 331 330 328 328 330 331 332 332 332 333 332 331 331 329 328 328 328 327 327 328 328
342 342 342 340 339 337 334 331 329 328 326 326 329 333 336 334 334 335 333 334 334 334 336 336 337 337 338 337 337 337 336 336 336 335 336 335 334 334 336 336 332 329 329 330 331 331 330 326 318 314 317 324 331 332 333 335 335 335 335 335 335 333 333 333 332 330 329 329 330 332 332 332 332 331 331 330 329 328 328 328 328 327 327 327 327
342 342 341 340 339 336 332 328 327 327 325 327 328 331 334 331 332 335 333 334 334 333 334 335 335 335 335 335 335 335 334 334 333 333 333 332 331 331 333 335 334 330 328 330 330 332 331 328 322 316 316 324 330 333 334 335 334 335 336 335 335 334 333 333 332 331 330 329 329 330 331 331 331 330 329 328 328 327 327 327 327 327 326 326 326
342 342 341 340 339 334 331 330 330 329 328 327 327 328 329 329 332 335 333 333 334 333 334 333 333 332 332 332 333 334 335 335 334 334 334 334 333 332 331 332 334 331 328 329 329 331 331 330 325 319 321 328 332 333 334 333 332 333 335 335 335 334 333 333 333 332 331 329 327 328 329 330 330 329 329 329 328 327 327 327 327 326 326 326 326
342 342 341 341 338 334 333 335 335 334 332 328 327 327 327 330 333 334 332 330 332 334 333 332 333 334 331 330 334 337 338 339 337 338 338 338 338 337 333 331 332 331 329 328 328 330 331 331 328 322 324 331 332 332 333 332 332 332 333 334 334 335 334 334 333 332 330 329 327 327 328 328 329 330 330 329 328 327 327 327 326 326 326 325 325
342 342 342 340 339 338 337 338 338 337 335 331 328 327 329 332 333 333 331 330 331 333 333 334 336 338 334 332 336 339 339 340 340 339 339 340 340 339 338 335 332 330 330 330 328 328 330 331 331 326 324 328 330 332 332 331 333 333 334 334 334 335 335 334 333 331 330 328 327 327 326 327 329 330 329 328 328 326 326 326 326 326 325 325 325
342 342 342 341 340 341 339 339 340 339 337 334 329 328 331 333 334 333 331 330 331 333 336 338 338 339 338 334 334 338 339 339 340 340 340 340 340 339 339 339 336 331 329 330 329 328 329 329 331 330 326 325 327 330 331 332 335 335 335 335 334 335 335 334 333 331 330 328 327 327 326 326 328 328 329 328 328 327 326 326 326 326 325 325 325
342 342 342 342 341 342 340 340 341 339 339 336 330 330 333 335 334 334 333 331 331 334 336 338 339 340 340 338 335 336 337 339 340 340 340 340 340 339 339 338 338 334 328 328 330 330 329 328 329 330 330 328 328 330 332 335 337 336 336 336 335 335 335 334 332 331 330 328 327 327 325 326 326 327 329 328 328 328 327 326 327 326 326 326 326
342 341 342 342 342 342 341 341 342 340 340 336 332 333 336 336 336 336 335 334 333 334 336 338 339 339 340 340 338 338 338 338 339 340 340 340 340 340 339 339 338 336 331 327 328 329 330 329 329 328 330 330 330 330 332 335 336 337 337 336 336 335 334 333 332 331 330 329 327 326 325 326 326 326 328 329 329 329 328 327 327 327 327 326 326
341 341 341 342 342 341 341 341 341 341 340 336 333 337 339 338 338 338 337 337 336 337 338 338 339 338 339 339 339 339 339 338 339 339 339 339 339 339 340 339 338 338 336 331 329 329 329 329 329 328 328 329 330 330 331 332 334 337 336 335 335 334 334 333 332 332 330 329 328 326 325 326 326 326 328 329 330 329 328 328 328 328 327 325 325
341 341 341 341 341 341 341 341 341 341 340 338 335 337 340 340 338 338 338 338 338 339 339 339 339 339 339 339 340 339 339 339 339 339 339 339 339 339 340 339 339 338 338 336 334 332 332 331 330 330 331 331 331 332 333 333 334 337 336 334 334 334 334 333 333 332 330 329 328 326 327 327 326 327 328 329 330 329 327 327 327 327 327 324 325
341 341 341 341 341 341 341 341 341 341 340 340 338 336 339 340 339 339 339 339 339 340 340 340 340 340 339 340 340 340 340 339 339 339 339 339 339 339 339 339 339 339 339 338 336 335 335 334 332 331 333 333 333 333 334 335 335 336 336 333 333 334 333 333 332 332 330 330 329 329 329 327 327 328 329 330 329 327 327 327 326 327 326 325 325
342 342 341 342 342 342 342 341 341 341 340 340 340 338 338 340 340 339 340 340 339 340 340 340 340 340 340 340 339 340 339 339 339 339 339 340 339 339 339 338 338 338 339 339 337 335 335 335 333 332 332 333 334 333 333 335 336 336 336 333 332 333 333 332 332 331 330 329 330 331 330 326 325 327 329 329 328 327 327 328 326 326 326 326 325
343 342 342 342 342 342 342 342 341 341 341 341 341 341 340 340 340 341 341 340 340 340 340 340 340 340 340 340 339 339 339 339 338 338 339 339 339 339 339 338 338 338 337 338 338 336 335 334 334 333 333 334 335 334 333 335 337 336 336 333 332 332 332 332 332 331 330 329 330 331 330 326 324 326 328 329 328 327 328 328 327 326 326 325 325
343 342 343 342 343 342 342 342 341 341 342 342 342 342 342 342 342 342 341 341 341 341 341 340 340 340 340 340 339 339 339 338 337 337 338 338 338 338 339 339 339 338 337 337 337 337 336 335 334 334 334 335 336 335 334 334 335 336 336 334 332 332 332 332 331 332 331 331 330 330 329 327 324 325 328 329 328 327 328 328 327 326 325 325 325
344 343 343 343 343 343 342 342 341 342 342 342 342 343 342 342 342 342 342 342 342 341 341 341 340 340 339 339 338 338 338 338 338 337 337 337 337 338 338 338 338 338 337 337 337 337 337 336 335 335 334 334 335 335 334 334 334 334 335 333 332 332 332 332 332 332 332 332 332 329 328 329 327 325 327 328 327 327 328 327 327 325 325 325 325
345 345 343 343 344 343 343 342 342 342 342 342 343 343 343 343 343 342 342 342 341 341 340 340 340 340 339 338 338 338 338 338 337 337 337 337 337 337 337 337 337 337 337 338 337 337 337 337 336 335 334 333 332 332 332 333 334 334 333 333 332 332 332 331 332 332 332 332 332 331 328 329 329 327 326 327 327 327 327 327 326 325 325 325 325
342 345 344 344 344 343 344 343 343 343 343 343 343 343 343 343 343 342 342 341 341 340 340 339 339 339 338 338 338 338 337 337 336 336 336 336 336 336 336 336 337 338 337 338 338 337 337 337 336 335 334 333 332 330 329 331 334 334 334 334 332 331 331 331 331 332 332 332 331 331 330 329 330 329 326 326 326 325 326 327 326 325 324 325 325
340 345 345 344 344 344 344 344 344 344 344 343 343 342 342 342 342 342 341 341 340 340 339 339 339 339 338 338 337 337 336 336 335 336 336 335 335 335 335 335 336 337 338 338 338 337 337 337 336 336 335 334 332 330 329 331 332 333 334 334 332 331 330 330 331 331 332 332 331 331 331 330 331 331 327 326 326 324 324 326 326 325 323 324 324
343 345 344 343 343 343 344 343 343 343 343 343 342 341 341 341 341 341 340 340 340 339 339 339 339 338 338 338 337 337 336 336 336 336 336 336 336 335 335 335 335 335 336 336 336 336 336 336 335 336 335 334 333 331 331 331 331 331 331 331 332 331 330 330 331 331 332 332 332 331 331 331 331 332 330 328 327 323 322 325 326 324 323 324 324
344 343 343 343 343 343 343 342 342 342 341 341 341 341 341 341 341 341 340 340 340 340 340 340 339 339 339 339 338 337 337 337 336 336 336 336 336 336 335 335 335 335 334 334 334 335 335 336 335 335 335 334 334 333 332 332 331 330 329 330 331 330 330 330 330 331 332 332 332 331 331 331 330 331 331 330 328 322 320 323 324 323 324 324 324
341 341 342 342 342 343 342 342 342 342 341 341 341 341 341 341 341 340 340 340 340 339 340 340 339 340 340 339 338 337 337 336 336 335 335 335 335 335 335 335 335 335 334 334 334 335 335 335 335 335 335 334 334 334 333 333 332 330 329 329 330 330 330 330 330 330 331 332 332 331 331 331 330 331 331 330 329 324 320 322 322 322 324 324 323
337 336 340 341 341 342 342 342 342 341 341 341 340 340 340 340 340 340 339 339 339 338 339 339 339 338 339 339 338 337 337 336 335 335 335 335 335 335 335 335 335 335 335 334 334 334 335 335 335 335 335 334 333 333 333 334 332 331 329 330 331 332 331 330 330 331 332 332 332 331 331 330 330 331 331 330 330 327 322 322 322 322 325 324 323
334 332 336 340 341 340 340 340 340 340 339 339 339 339 339 339 339 338 337 336 337 337 337 338 338 337 337 337 337 337 337 336 336 336 336 336 335 335 335 335 335 335 335 335 334 334 334 335 335 335 335 334 334 333 333 333 333 332 330 330 330 331 334 332 329 330 331 331 332 332 331 331 331 331 330 330 330 329 325 323 324 324 324 324 323
332 331 333 339 341 339 339 340 340 339 338 338 338 338 337 336 336 336 336 336 337 337 337 337 338 338 337 337 337 337 336 336 335 336 336 336 335 335 335 335 335 336 336 335 335 334 333 334 334 335 334 334 334 333 333 333 334 333 331 331 331 331 335 334 330 331 331 331 332 332 331 331 331 331 330 330 330 330 327 324 326 326 324 324 324
332 332 333 338 340 339 338 339 339 339 339 338 338 337 336 336 336 336 336 336 336 337 338 338 338 337 337 336 337 336 336 336 336 335 336 335 335 335 335 335 335 336 337 336 335 334 334 334 334 334 334 334 334 334 333 333 334 334 332 332 332 332 333 332 332 333 331 330 332 331 330 330 330 330 331 330 330 330 328 326 327 327 326 324 323
332 333 336 339 340 339 339 339 339 339 339 339 339 338 338 338 338 338 338 337 337 337 337 336 335 334 334 335 334 334 335 335 335 335 335 335 335 335 335 334 334 335 336 335 335 336 335 334 334 334 334 334 334 334 334 333 333 334 333 332 331 330 330 331 333 335 333 332 331 329 330 330 329 330 330 330 330 329 329 328 327 328 328 326 324
334 335 336 337 338 339 339 339 339 339 339 339 339 339 338 338 338 338 338 337 336 335 334 333 333 334 334 334 334 334 334 334 335 335 335 335 334 334 334 334 334 334 334 333 334 335 335 335 334 334 334 334 334 334 334 334 333 333 333 331 331 330 330 330 331 332 333 333 331 330 329 329 329 329 329 329 330 330 330 329 328 328 329 328 326
336 336 334 334 335 337 337 337 337 337 337 337 337 337 336 336 337 336 336 335 335 334 334 334 333 333 333 333 333 333 333 333 334 334 334 334 334 334 333 333 333 333 333 333 332 333 334 335 335 335 334 334 334 334 334 334 333 332 332 331 331 330 329 330 330 329 331 333 333 331 330 330 329 329 329 329 330 330 330 330 330 329 329 329 328
336 335 335 334 335 335 334 333 333 333 333 333 334 334 334 335 334 334 334 334 334 334 334 333 332 332 332 332 332 332 332 332 332 332 333 333 333 333 333 333 333 333 333 332 332 331 332 332 333 334 334 334 334 334 334 334 333 331 331 331 330 330 329 329 329 329 329 331 333 332 331 331 331 330 330 330 330 330 330 330 330 330 329 329 330
334 333 333 332 332 332 331 330 330 331 331 332 332 332 332 333 333 333 333 332 333 333 332 332 332 332 332 331 331 331 331 331 330 330 330 331 332 332 333 333 333 333 332 332 331 331 331 330 330 331 333 333 333 334 333 333 332 331 330 330 330 330 330 329 329 329 329 331 332 332 331 331 331 331 330 330 330 330 330 330 330 330 329 330 330
Wind_Speed
19 20 21 19 19 18 18 19 18 18 16 16 15 14 14 15 15 16 18 20 22 22 22 24 25 25 23 22 21 20 19 20 20 20 19 18 18 18 17 17 16 15 15 15 15 14 14 14 14 14 14 16 18 18 18 17 17 17 18 17 18 19 20 20 18 19 20 21 20 20 20 20 20 20 20 20 20 20 21 21 22 23 22 21 21
22 22 22 20 19 18 19 18 18 17 16 16 15 14 13 14 15 16 18 21 22 23 23 24 24 24 22 21 20 20 20 21 21 20 19 19 18 17 17 16 15 15 15 15 14 14 14 14 13 13 14 16 18 17 16 15 16 17 19 19 20 21 21 21 20 20 20 20 20 20 20 19 19 19 19 19 19 19 20 20 21 21 21 20 20
25 24 22 21 19 19 19 18 18 17 16 16 14 13 13 14 15 16 18 21 23 23 23 23 23 23 21 20 20 20 20 21 21 20 19 18 17 17 16 16 15 15 14 14 13 13 13 13 12 12 13 16 18 16 14 14 15 16 18 19 20 21 21 21 20 20 18 18 19 19 19 18 18 18 18 18 18 18 19 19 19 19 19 19 19
27 25 22 21 18 19 18 18 18 17 17 15 14 13 12 14 15 16 18 22 23 22 23 23 22 21 20 19 20 20 20 20 20 19 18 18 17 17 16 16 15 14 13 13 12 12 12 11 10 11 12 15 18 15 13 14 15 16 17 18 18 20 21 19 19 18 16 17 18 18 18 18 16 16 16 17 17 17 18 18 18 17 17 17 18
28 26 23 21 19 19 18 18 18 17 16 15 14 13 12 14 15 16 18 22 23 23 22 22 22 21 20 19 19 20 20 20 19 19 18 17 17 16 16 15 14 13 12 12 12 11 11 10 9 9 10 14 17 15 13 14 15 15 16 16 15 15 16 15 16 15 13 13 15 16 17 17 15 14 14 15 16 16 16 17 16 16 16 16 17
28 25 24 22 20 19 19 19 18 18 16 15 14 13 13 14 15 16 19 23 24 23 22 21 21 20 20 20 19 19 19 19 19 18 18 17 16 16 15 14 13 13 12 12 11 10 9 9 8 8 9 14 16 14 13 13 13 14 13 12 11 9 8 6 8 11 11 10 11 14 16 16 15 13 13 14 15 15 15 15 15 15 15 16 16
27 25 24 22 22 20 19 19 18 18 16 16 14 13 13 13 15 16 19 23 24 24 21 20 19 19 19 19 19 19 19 19 19 18 18 17 16 15 14 13 12 12 11 11 11 10 9 9 8 7 8 14 16 14 13 12 11 11 10 8 6 5 5 4 1 8 8 8 10 13 15 15 14 13 13 14 14 14 14 14 14 15 15 15 16
25 25 23 23 22 20 20 19 19 18 17 16 15 13 12 13 15 16 19 23 24 23 22 20 18 18 18 19 19 19 18 18 18 18 17 16 15 14 13 12 11 10 10 11 11 10 9 8 7 7 7 14 16 13 13 12 10 9 7 6 5 7 7 3 7 13 9 8 10 12 14 14 13 13 12 13 13 14 14 14 13 14 14 14 14
25 23 23 24 22 21 21 20 19 18 18 17 15 13 12 13 14 17 19 23 25 23 21 20 17 16 17 18 18 18 18 17 17 16 16 15 14 12 11 11 10 9 9 11 11 10 8 7 7 6 8 14 16 14 13 12 10 8 6 5 7 9 10 11 14 16 12 11 12 12 13 13 13 12 11 11 12 12 13 13 13 13 14 14 14
25 24 24 24 22 22 21 20 19 19 19 17 15 13 12 12 14 17 19 22 24 23 21 19 16 16 16 17 17 17 16 16 16 15 14 14 12 11 10 9 9 8 9 11 10 9 7 6 7 8 10 15 17 15 13 12 10 8 7 7 10 11 15 17 17 15 14 13 11 11 12 12 12 11 10 11 11 12 12 12 11 11 12 13 14
26 26 25 24 23 22 21 21 20 20 19 17 15 13 11 12 15 18 20 22 23 21 20 18 16 15 16 16 16 15 15 15 14 14 13 13 11 10 9 8 8 8 9 10 9 8 7 7 8 11 14 16 17 15 13 12 10 8 8 10 12 14 16 16 15 14 13 12 12 12 12 12 13 12 11 11 12 12 12 11 10 10 11 11 12
26 27 26 25 23 22 21 21 21 20 18 17 14 13 12 12 15 19 21 21 20 18 18 17 16 16 16 15 15 15 15 14 13 12 12 11 10 9 8 7 7 8 8 8 8 10 10 10 11 13 16 17 17 16 14 12 10 9 10 12 13 15 15 14 13 13 13 13 14 13 12 12 12 12 11 11 11 11 12 11 11 11 11 11 11
26 27 26 25 23 22 22 21 21 19 18 16 14 13 12 14 17 20 21 19 17 16 17 18 16 15 15 15 15 15 14 14 13 11 11 11 10 8 7 6 6 7 7 8 9 12 12 11 12 15 18 18 17 16 14 12 11 10 11 13 14 15 14 13 12 12 12 12 14 14 12 11 11 11 11 10 10 10 10 10 11 11 11 11 11
27 26 25 24 23 21 21 21 20 19 17 15 13 13 13 16 19 21 20 18 16 16 17 18 17 15 15 15 15 14 14 13 12 10 10 10 9 8 6 5 5 6 6 8 10 12 12 12 14 17 19 19 17 15 13 12 10 9 11 12 14 16 14 12 11 11 11 12 14 15 13 12 12 11 11 10 10 9 9 10 10 10 11 11 11
26 26 24 24 23 21 21 20 19 18 16 14 13 13 14 17 19 21 20 17 17 17 18 18 17 15 14 14 14 14 13 12 11 9 9 9 7 6 5 5 4 5 6 7 9 10 11 12 15 19 19 19 17 15 13 11 9 9 11 11 12 16 15 13 11 10 10 12 14 15 13 12 11 11 11 10 10 9 9 9 9 10 10 11 12
24 25 24 23 22 21 20 19 18 16 14 12 13 14 15 16 19 20 18 18 18 18 19 18 16 15 13 13 12 13 12 12 11 9 9 8 6 5 4 4 4 4 5 6 7 9 10 12 16 20 20 18 16 14 12 9 9 10 11 10 11 15 14 12 9 8 9 12 13 14 14 12 10 10 11 10 10 9 9 9 10 10 9 10 11
23 25 24 23 22 21 20 18 16 15 13 12 13 14 15 15 18 18 16 18 18 17 18 18 17 15 14 12 12 12 12 11 10 9 8 7 6 4 4 4 4 4 5 6 6 8 9 11 16 19 19 17 15 13 10 9 9 10 11 10 11 13 12 10 8 9 10 11 12 13 14 12 11 10 11 11 10 9 10 10 9 9 10 10 11
22 24 24 23 22 21 20 18 16 15 13 13 13 13 14 15 16 16 15 18 19 17 16 17 16 16 14 13 13 12 11 10 9 9 7 7 5 4 3 5 5 5 5 5 6 7 8 10 14 18 19 17 15 12 9 9 9 10 10 9 11 14 12 9 8 10 10 10 11 13 14 13 12 11 11 11 10 10 9 8 7 9 10 10 10
23 23 23 23 22 21 20 18 17 16 14 14 14 13 14 15 15 14 15 18 19 18 17 16 16 16 15 15 14 12 10 9 8 7 6 5 5 4 4 5 6 5 5 5 5 6 7 9 12 16 18 17 14 11 9 9 8 10 11 9 11 14 12 9 8 9 9 10 12 14 14 13 12 11 11 10 10 9 8 7 7 8 9 9 9
22 23 22 22 22 21 19 18 18 17 15 14 14 13 13 13 13 13 15 18 19 18 17 16 16 14 13 13 12 11 10 9 8 7 6 5 4 4 4 6 7 6 6 5 5 5 6 8 11 14 17 17 14 12 10 8 8 11 12 10 12 14 12 9 8 8 9 10 12 13 13 12 12 11 10 9 8 7 6 6 6 7 8 8 8
21 22 22 22 21 20 19 18 18 16 15 15 15 14 13 12 13 13 15 17 19 18 16 15 14 12 11 12 12 11 9 8 7 7 6 5 5 5 6 6 8 7 6 5 5 5 6 7 9 13 16 17 15 13 10 9 9 10 9 8 10 14 12 9 8 7 8 9 10 12 12 11 10 9 9 8 7 6 6 7 7 8 8 7 7
20 20 20 21 20 20 19 18 17 16 15 15 15 16 14 14 14 14 15 16 16 16 14 13 13 11 10 10 11 11 8 7 7 7 7 6 6 6 7 7 9 9 7 6 5 5 5 6 8 10 14 16 16 14 11 10 10 9 7 5 7 12 12 9 7 7 7 7 8 10 10 9 9 8 8 8 7 7 8 8 8 8 8 8 7
20 20 20 20 19 19 18 17 17 16 15 15 16 16 16 15 15 15 15 15 14 13 13 12 11 9 9 9 9 9 7 6 5 5 5 5 4 5 7 8 10 11 10 8 6 6 6 7 8 10 13 16 17 15 12 11 10 8 6 4 5 11 12 10 7 7 6 6 7 8 9 9 9 8 9 9 8 9 9 9 9 8 9 8 7
20 21 21 20 19 19 18 17 17 17 16 16 16 16 16 15 15 15 14 14 13 12 11 9 8 6 7 8 8 8 7 6 5 5 5 5 3 2 5 8 11 12 12 10 8 7 7 7 8 10 14 18 18 15 13 11 10 9 7 4 4 10 12 10 9 8 6 6 6 8 10 10 9 9 10 10 10 9 9 9 9 9 9 9 7
20 21 22 21 20 19 18 18 17 17 16 17 17 17 16 15 15 15 13 13 12 11 10 9 8 6 6 8 9 8 6 5 6 6 7 7 5 4 4 6 10 13 14 12 10 9 8 9 8 11 15 19 18 16 14 12 9 9 7 2 4 7 10 11 10 9 7 6 7 8 9 9 9 10 9 8 9 9 9 9 10 9 8 8 7
20 21 21 21 21 20 19 19 18 16 15 17 18 17 17 16 15 15 13 13 12 12 11 11 9 7 7 9 9 9 7 7 7 8 9 10 8 7 6 6 8 11 14 14 13 11 10 10 10 11 15 18 17 16 14 10 7 8 7 5 8 7 11 12 12 10 8 7 8 8 8 9 11 11 8 8 9 9 10 9 9 9 8 7 7
21 21 21 21 21 20 20 20 19 17 16 16 17 17 17 16 15 14 13 13 13 13 12 11 9 8 8 10 11 10 10 10 9 10 11 11 10 10 9 7 7 9 13 15 15 13 11 11 11 11 13 16 17 16 14 9 7 7 7 9 13 10 12 14 13 11 9 8 8 8 8 9 11 11 10 9 9 8 9 9 8 8 8 8 8
22 20 20 21 21 21 21 20 19 18 16 16 17 17 17 15 15 14 13 13 13 14 12 11 11 11 10 10 11 11 11 12 12 11 12 13 12 12 10 9 8 7 10 14 16 15 14 13 12 13 14 16 17 16 14 11 9 9 10 12 15 14 14 15 14 12 10 9 9 9 8 8 10 11 10 9 9 8 8 9 8 7 9 9 8
23 21 20 21 21 22 21 21 20 18 17 16 16 16 16 15 15 14 13 13 13 13 12 12 13 14 13 13 13 12 12 13 14 14 13 14 14 14 12 11 10 8 9 12 15 16 16 15 15 15 15 16 17 17 16 14 12 11 11 12 15 15 15 16 15 14 11 10 10 9 8 8 9 11 12 10 9 8 8 9 8 8 9 8 7
23 22 21 21 21 22 22 21 20 18 17 16 15 16 16 15 15 14 13 13 13 12 11 13 14 15 16 16 15 15 15 15 16 16 16 16 16 17 16 13 12 11 10 11 13 14 15 16 17 17 16 17 18 18 16 15 14 12 12 12 15 17 17 17 16 15 12 11 10 9 8 7 8 11 12 11 10 8 7 8 8 9 8 7 7
22 22 22 21 20 22 22 21 20 18 17 15 14 15 16 16 15 14 13 13 13 12 12 13 15 16 16 16 17 17 18 18 18 18 18 17 17 19 19 17 16 15 15 14 13 13 14 16 18 19 18 18 18 18 16 15 14 13 13 12 13 17 17 16 16 15 14 12 10 9 8 7 7 9 12 12 11 8 8 8 8 8 7 7 8
22 23 22 21 20 20 21 21 20 18 17 15 14 15 15 16 16 16 15 14 14 14 14 15 15 16 16 16 17 17 18 19 19 19 19 18 17 18 20 20 20 20 19 18 16 16 16 17 19 20 20 21 21 20 17 17 16 15 15 10 9 15 16 16 17 16 14 13 10 9 8 8 9 10 12 13 11 9 9 9 8 8 8 8 9
21 21 22 20 19 19 20 19 19 17 16 15 15 15 14 15 15 16 16 16 17 16 15 15 15 15 16 16 17 17 17 18 18 18 19 18 18 17 18 20 20 21 22 21 19 18 19 20 21 21 21 22 24 24 21 20 18 16 16 11 8 14 17 17 18 17 15 13 11 8 7 8 11 13 13 12 10 10 10 9 9 9 9 9 9
19 19 20 19 18 18 18 18 19 17 15 14 14 14 14 13 13 14 15 16 17 17 16 16 16 15 15 16 16 16 16 15 15 16 17 18 18 17 18 19 18 18 20 22 21 20 21 22 22 20 20 21 24 25 23 22 20 18 17 12 8 11 16 17 17 17 16 14 12 9 7 8 12 14 14 13 11 11 11 10 10 10 10 9 9
18 19 19 19 17 16 16 17 18 16 15 15 14 13 13 13 13 13 14 15 15 16 15 15 15 15 15 15 14 15 14 14 14 15 16 16 17 18 19 19 19 19 19 20 22 21 21 23 23 20 18 19 20 20 19 20 20 18 17 13 7 8 14 17 17 17 17 15 13 12 9 8 11 13 14 13 12 12 12 11 11 10 10 10 10
18 19 19 19 17 16 16 16 17 17 16 16 14 13 12 12 12 12 12 12 13 14 14 14 15 15 15 14 13 13 13 13 14 15 16 16 17 18 18 18 19 20 20 19 20 22 21 22 23 20 16 15 16 18 19 19 19 18 16 13 8 7 11 16 18 18 17 17 15 14 13 10 10 13 14 14 14 14 13 12 12 12 11 11 11
17 19 19 20 18 16 16 15 16 16 16 16 15 13 13 12 11 11 12 12 13 13 14 14 15 14 13 12 12 12 12 13 13 15 16 17 18 17 16 15 15 18 19 18 18 20 21 20 22 21 18 14 13 16 18 18 16 15 14 12 9 8 9 14 18 17 18 18 17 16 16 13 11 12 15 15 15 15 14 12 13 13 12 12 11
15 18 18 18 17 16 15 15 16 16 15 15 14 13 12 11 11 11 12 13 13 13 14 14 13 12 11 11 12 13 13 14 14 15 16 18 19 18 17 15 15 17 18 18 18 19 20 20 21 21 21 19 14 14 18 18 15 13 12 12 10 9 10 15 17 15 16 19 19 17 17 16 13 13 14 16 16 16 14 14 14 13 13 13 12
18 19 18 17 16 16 16 15 14 15 15 15 13 12 11 10 10 10 11 12 12 12 11 12 11 10 10 10 11 13 13 15 15 16 17 17 18 18 18 17 16 16 18 19 20 20 20 20 21 21 22 23 19 17 18 17 13 8 7 7 9 9 12 15 15 13 15 18 20 20 19 18 16 14 15 16 16 16 15 15 16 15 14 14 14
21 20 19 18 17 17 17 15 13 13 13 14 13 11 10 10 9 9 9 9 9 9 9 10 10 9 9 10 11 13 13 15 16 17 18 18 18 18 18 18 17 17 18 20 21 22 22 21 21 21 21 20 20 19 17 16 14 8 3 4 6 7 10 14 15 14 15 18 21 22 22 21 19 17 16 16 16 16 16 16 17 16 15 16 15
22 21 20 19 19 18 17 15 13 12 12 13 13 11 10 10 9 9 8 7 8 9 10 10 10 9 9 10 11 12 14 15 16 17 18 19 20 19 19 19 18 18 19 21 22 23 23 23 22 21 20 18 18 17 15 16 13 10 8 8 8 8 10 13 15 15 15 17 21 22 23 23 22 20 18 18 17 17 17 16 17 17 17 17 16
16 19 20 19 18 17 16 14 12 11 11 10 9 9 8 7 6 6 5 6 8 9 10 10 9 9 9 11 13 14 16 17 17 17 17 18 19 20 20 21 21 21 21 22 23 23 24 24 23 22 21 20 20 18 16 15 11 10 9 6 5 6 9 12 15 16 16 18 20 21 23 25 24 22 21 20 19 18 17 17 17 18 19 18 17
10 10 15 18 18 16 14 13 11 10 9 8 8 7 6 4 4 3 3 6 8 9 10 10 9 9 9 12 14 14 16 18 18 17 18 19 20 21 21 22 23 23 24 24 24 24 25 25 25 24 22 20 20 20 19 18 14 10 6 3 3 3 6 9 14 16 16 18 19 21 24 26 25 24 24 23 21 20 18 17 18 19 20 18 19
13 8 12 17 17 14 13 13 11 9 8 7 6 5 4 4 4 4 4 5 6 7 9 9 10 10 10 14 16 15 16 17 18 19 20 21 21 22 23 24 25 25 25 25 25 26 26 26 25 25 22 19 19 20 20 20 19 13 5 2 2 2 4 6 10 14 16 16 18 21 24 27 26 25 27 26 24 23 20 19 19 19 20 20 20
16 12 13 16 16 13 13 12 10 8 6 4 4 2 2 3 4 4 4 5 5 6 7 9 10 10 10 13 14 15 15 16 18 20 21 21 22 23 24 26 28 28 28 28 28 27 27 27 26 25 24 22 20 19 18 19 22 21 14 6 2 1 3 4 7 9 14 17 18 20 24 26 26 27 29 29 26 25 22 21 21 20 21 20 20
14 13 13 14 16 14 13 11 9 7 4 3 2 1 1 1 2 2 2 4 6 7 8 9 10 9 10 11 11 11 12 13 15 16 18 20 22 24 25 26 28 29 29 29 29 29 28 28 27 25 25 25 23 19 17 18 21 24 24 19 11 6 2 4 5 2 9 17 18 19 22 26 27 27 30 30 28 27 24 23 23 21 21 21 21
15 14 13 15 15 13 12 11 9 7 6 4 3 2 3 3 4 5 5 4 5 7 8 8 10 9 9 10 11 10 11 12 13 14 16 18 21 23 25 26 27 29 29 28 29 30 30 29 28 27 27 26 23 21 20 19 19 22 26 26 22 17 10 7 6 3 3 9 15 20 22 25 27 27 29 31 30 29 26 25 24 22 22 22 22
16 16 16 16 15 13 12 10 9 8 6 5 4 3 3 2 2 2 2 3 4 5 7 8 9 9 9 10 11 12 12 12 13 14 15 16 18 20 22 23 25 28 28 27 28 29 29 30 30 29 28 27 25 24 24 22 20 21 24 25 24 23 20 14 11 8 4 3 8 15 19 23 26 27 29 31 31 29 27 26 26 24 23 23 23
17 16 15 14 12 11 11 12 13 12 11 9 7 5 4 3 3 3 3 3 4 6 7 8 9 9 9 9 10 11 12 13 13 13 15 16 18 19 21 23 24 25 26 27 28 28 29 31 31 30 29 29 28 28 28 26 26 25 23 24 22 21 19 18 15 10 5 5 5 6 12 17 20 25 30 31 31 30 27 26 26 26 24 24 24
19 17 16 14 12 13 15 16 17 16 15 13 12 10 8 7 7 7 7 6 5 5 6 7 8 9 10 9 10 11 13 14 14 14 16 17 19 20 22 24 25 25 25 27 27 28 30 30 30 30 31 31 30 30 30 31 30 27 24 23 21 18 14 12 14 13 8 7 7 5 11 14 13 20 29 31 30 29 28 27 26 27 27 26 26
21 20 20 19 18 19 19 20 18 17 15 14 12 12 10 10 10 9 8 8 7 7 8 9 10 10 11 12 13 13 13 14 15 16 16 17 19 21 22 24 25 25 25 26 26 27 29 29 29 29 30 31 30 30 33 35 32 28 26 25 24 23 19 15 17 19 13 7 6 5 11 16 15 17 25 29 29 27 27 28 28 28 28 27 27
Wind_Direction
155 152 148 151 151 150 149 146 142 142 139 134 130 125 114 103 104 107 115 120 119 114 112 114 113 111 108 105 100 98 96 97 100 102 103 103 102 100 98 95 95 94 94 94 94 94 95 96 96 95 94 98 100 99 99 97 96 93 92 93 93 92 91 90 86 83 83 83 83 83 84 86 87 87 86 84 84 84 83 83 83 81 79 77 77
156 152 149 152 152 149 149 147 145 145 141 139 133 128 116 108 109 111 118 122 121 116 115 115 114 112 108 104 100 99 99 100 103 105 105 104 103 101 101 99 98 97 97 95 95 94 93 93 93 94 95 102 105 103 101 101 101 98 98 96 93 91 90 88 85 81 81 83 82 82 82 83 85 85 86 85 84 83 83 82 81 81 81 79 78
149 151 151 151 151 149 149 148 147 147 145 143 138 132 120 112 112 115 121 125 123 118 117 117 114 111 108 104 101 102 103 105 106 107 106 106 105 104 103 101 99 96 95 94 95 95 95 93 92 94 95 106 109 105 103 104 106 105 103 100 96 91 86 83 82 79 79 83 84 84 81 80 81 83 85 85 84 83 82 82 81 81 81 81 79
146 148 149 149 150 148 148 149 148 151 150 149 142 135 124 115 115 118 124 128 125 120 120 118 115 112 109 107 106 108 108 110 109 109 108 107 106 104 102 99 97 95 94 94 95 95 97 98 98 100 100 111 111 108 109 108 110 110 107 103 99 94 88 80 75 74 77 82 85 85 82 80 78 81 83 84 85 84 84 84 83 83 82 82 81
143 145 147 147 149 149 148 149 151 155 155 153 146 138 126 116 117 121 126 130 126 122 122 120 118 115 111 110 110 112 112 112 111 110 109 108 106 103 100 97 96 95 97 96 95 91 89 90 98 108 115 120 117 117 120 114 114 113 111 106 100 97 94 80 69 71 79 82 83 86 86 84 81 79 84 86 87 86 87 86 85 86 86 86 84
141 143 146 147 149 149 149 151 154 159 160 156 149 139 125 115 119 124 129 132 129 126 125 123 121 119 116 113 113 114 115 115 114 113 112 111 106 103 101 98 93 91 90 89 89 82 77 75 84 104 125 131 129 131 127 121 120 116 116 111 104 101 92 65 65 80 85 83 85 91 92 90 87 84 87 89 88 88 87 84 82 83 83 84 83
138 141 145 148 149 150 151 154 158 162 162 157 148 137 123 117 122 127 133 134 132 131 129 126 124 123 120 118 117 117 118 118 118 118 118 115 111 109 107 103 98 96 92 90 87 78 78 74 74 86 118 138 142 141 134 128 125 124 124 118 107 74 35 342 117 117 105 91 93 100 98 93 90 86 86 87 87 85 81 78 79 79 79 81 82
136 141 146 149 150 153 155 158 161 164 161 155 146 135 126 120 127 132 137 138 135 135 133 131 126 125 124 123 121 121 123 122 123 122 121 119 116 114 109 106 102 102 102 101 95 84 84 81 82 83 111 143 150 149 143 140 137 136 128 114 77 42 39 38 137 139 129 104 101 103 99 92 87 82 81 84 84 82 80 79 77 78 78 79 80
137 142 147 151 153 156 158 160 162 164 160 154 146 138 131 126 133 138 141 141 139 139 138 134 128 126 127 127 124 125 127 126 126 124 122 118 115 112 105 100 94 93 96 99 99 94 90 87 91 90 114 145 154 153 149 149 149 143 125 98 57 59 86 103 127 135 126 113 107 104 99 93 86 78 76 78 79 81 83 83 81 80 79 78 77
140 144 149 153 154 159 159 160 161 162 160 154 150 144 138 134 138 142 144 144 143 143 141 136 130 128 128 126 125 127 129 128 125 123 122 119 115 109 101 94 89 86 88 93 98 102 102 97 99 105 123 143 151 150 150 151 148 137 116 77 62 89 111 114 123 126 120 117 111 106 103 97 90 84 81 79 79 83 84 83 84 85 86 85 83
144 148 152 155 156 160 159 160 161 161 161 157 155 149 144 141 144 144 145 146 145 144 142 136 131 129 128 126 128 129 130 127 125 125 125 121 115 107 99 93 88 83 85 89 97 102 102 103 106 114 128 140 147 149 150 147 138 121 94 68 80 115 125 124 125 122 121 116 113 110 103 98 94 92 89 85 84 85 85 84 86 88 91 91 89
149 153 155 157 158 161 159 160 160 161 163 161 159 154 150 149 148 145 144 146 144 142 140 136 132 132 131 130 131 132 133 130 130 131 128 121 112 104 97 90 85 83 85 83 86 92 94 102 112 122 131 140 145 148 146 139 124 103 83 75 96 124 131 131 130 124 120 112 112 108 102 102 100 98 94 90 90 89 88 87 87 87 91 91 90
154 158 158 158 159 160 159 159 161 163 165 164 163 159 156 152 148 145 143 143 139 139 140 138 135 137 137 136 136 136 137 137 137 136 130 122 111 102 93 87 82 81 81 72 76 86 94 106 120 130 136 142 146 146 142 131 116 99 84 82 102 126 134 135 133 127 119 114 115 112 107 105 103 102 98 96 95 93 91 90 89 89 90 91 91
155 159 159 158 156 157 159 160 162 165 167 166 164 160 155 151 149 146 143 141 140 142 144 141 141 143 142 141 140 140 141 140 140 139 132 123 111 98 93 92 83 83 80 69 72 83 96 112 128 137 141 144 146 146 140 130 118 99 85 86 108 129 139 141 137 130 124 122 124 122 113 103 103 103 101 101 98 96 97 95 93 92 91 90 91
154 157 156 155 153 155 160 162 164 167 168 165 161 156 151 151 151 147 143 146 148 148 147 144 144 145 145 145 143 141 143 143 143 143 134 125 111 96 99 107 96 96 89 76 74 83 99 118 136 142 145 147 148 146 140 132 117 94 84 88 117 138 145 146 140 135 132 132 132 128 121 113 110 105 103 103 99 97 97 97 95 95 94 92 89
155 154 151 151 152 155 158 162 165 166 166 163 156 150 149 151 150 149 148 152 154 153 151 149 147 147 149 149 147 147 148 150 151 150 141 131 122 108 115 129 123 115 106 92 81 84 99 121 142 147 148 150 149 147 141 130 111 92 83 91 131 149 151 149 138 133 135 139 138 132 127 122 113 105 104 104 102 100 98 99 98 98 98 95 92
155 152 149 151 154 156 158 159 163 166 165 159 150 145 148 149 149 153 154 157 160 159 156 156 154 151 154 153 153 157 157 159 162 161 153 144 139 134 142 153 149 138 125 110 92 89 100 123 146 153 153 154 152 147 141 126 110 95 83 94 136 154 156 150 131 123 129 139 141 134 128 122 116 110 109 109 108 107 106 104 101 103 100 97 96
153 154 153 153 155 157 159 158 163 164 158 149 142 142 147 150 154 160 161 163 166 163 162 165 164 159 159 161 162 165 163 167 173 173 165 156 160 165 170 176 170 157 144 128 110 99 104 124 148 159 159 159 156 149 144 129 114 96 83 99 140 155 157 151 130 121 121 129 132 127 126 126 126 123 119 118 116 114 113 110 107 107 104 101 100
152 157 156 156 158 159 160 159 162 158 150 144 140 139 145 151 157 165 166 168 170 170 171 170 172 170 170 171 169 168 169 176 182 184 181 173 180 190 193 193 188 175 160 145 128 113 111 123 147 164 165 163 160 155 149 135 117 94 86 104 144 157 159 154 134 124 122 124 127 127 130 131 130 129 125 125 126 126 120 113 109 110 109 106 106
151 158 157 158 161 161 161 159 159 154 148 144 141 139 144 152 156 164 165 169 174 176 179 175 175 178 182 183 177 173 177 187 194 201 205 202 209 209 208 206 203 191 172 161 145 130 119 124 144 164 170 168 164 162 154 138 118 101 94 107 148 163 163 157 140 131 128 128 131 132 135 134 131 132 132 133 135 135 128 117 112 116 115 111 112
151 156 157 160 164 165 162 160 158 155 151 149 148 143 148 159 158 163 165 169 177 181 187 183 180 179 182 190 188 185 187 196 209 223 227 225 229 225 221 215 213 206 189 177 163 147 131 130 143 162 174 173 170 167 157 141 125 112 98 104 154 170 166 159 148 139 134 134 137 135 137 138 137 139 139 139 137 134 132 123 117 121 122 118 118
150 156 159 164 167 167 163 161 158 156 156 155 154 150 159 170 164 166 165 167 176 184 190 190 190 189 189 195 197 200 201 209 224 233 235 235 238 236 228 221 219 215 203 193 181 169 152 142 146 161 174 176 174 169 158 146 137 125 101 96 165 177 171 168 162 149 138 136 141 140 142 141 140 142 143 142 139 136 133 130 127 129 130 127 128
153 158 163 168 169 167 163 161 160 160 162 160 159 159 169 176 172 171 165 164 172 178 182 184 188 193 196 196 196 201 198 201 215 221 224 229 240 243 232 224 222 220 213 204 195 187 173 161 156 164 171 172 171 166 158 154 151 143 112 92 175 183 179 180 174 159 145 142 144 142 143 146 147 147 143 142 142 142 139 139 138 137 137 135 135
155 159 163 168 168 165 162 162 163 162 162 163 165 169 174 177 175 174 170 168 170 171 173 175 175 178 187 187 183 184 181 185 198 207 216 219 229 272 249 229 223 222 218 212 204 197 190 180 169 169 170 168 168 165 162 160 162 161 135 110 177 185 186 189 182 171 160 154 148 143 150 157 154 145 142 141 142 142 143 144 140 141 143 142 143
153 155 160 164 166 165 164 165 165 163 161 163 168 173 175 175 175 177 177 174 172 171 173 174 170 167 176 181 181 182 187 208 223 223 226 228 236 274 278 243 229 225 222 218 211 204 202 195 185 179 175 170 169 168 165 161 166 170 161 179 220 196 199 200 189 181 172 161 157 162 172 168 149 145 148 147 145 143 147 149 145 147 149 147 147
153 152 157 162 167 168 168 168 169 169 163 163 169 174 174 174 174 178 182 180 178 176 178 179 174 175 182 189 195 200 206 224 241 241 237 235 236 248 265 264 249 234 227 225 219 211 207 204 201 193 185 181 178 176 176 177 184 184 185 246 267 226 211 209 197 190 179 167 169 179 182 167 155 156 159 153 150 149 150 153 150 150 148 144 143
157 154 157 163 169 172 174 172 173 174 168 168 173 174 175 174 173 177 183 183 182 183 186 187 189 198 202 201 207 214 217 220 234 244 243 238 235 236 244 257 265 251 234 231 228 222 215 213 213 207 201 197 191 189 196 209 222 222 222 262 277 251 220 214 204 195 184 176 178 185 179 165 164 162 161 159 155 155 153 153 154 146 139 139 143
160 157 159 165 172 175 177 176 176 178 173 174 177 174 173 173 174 176 181 184 186 189 193 195 203 213 219 218 218 223 225 224 228 237 241 239 239 240 241 243 253 257 240 232 231 231 227 224 222 218 217 215 211 211 216 223 237 255 258 265 273 256 223 212 206 196 189 185 182 185 179 165 163 160 163 168 164 164 156 154 157 145 136 137 142
165 162 162 167 173 176 178 178 179 181 177 177 179 175 173 177 180 180 181 188 192 195 200 206 211 215 222 228 229 232 234 233 232 234 237 238 242 248 251 248 247 251 245 235 232 233 233 233 233 229 227 227 230 232 231 234 245 265 269 262 264 249 220 211 207 199 194 190 184 184 181 171 165 164 167 171 169 167 159 158 160 151 144 141 142
169 167 166 168 174 177 179 181 181 182 180 179 182 181 181 184 188 189 188 194 201 205 211 218 222 222 224 230 234 238 240 242 241 239 237 236 240 246 251 252 253 252 249 244 239 237 236 238 239 237 237 237 238 238 239 244 251 266 268 257 251 238 219 213 209 202 197 191 185 184 185 184 174 167 165 169 171 167 164 165 167 163 154 149 152
171 170 171 171 174 178 182 185 186 187 186 185 189 189 189 191 195 199 201 204 210 217 223 227 230 232 235 238 240 242 245 248 248 248 245 241 240 243 246 248 251 254 254 252 248 244 242 243 244 242 244 247 246 243 244 248 252 263 263 252 243 231 219 213 209 204 197 190 188 187 191 193 183 169 164 173 178 170 169 171 174 175 156 150 163
172 173 173 175 176 179 184 187 188 189 191 192 195 195 195 198 202 207 213 216 219 225 231 236 238 238 242 245 246 246 249 252 253 254 253 250 245 243 245 246 248 252 255 255 252 247 246 247 246 244 246 252 254 250 249 251 251 259 260 253 234 223 216 207 203 204 198 191 189 190 198 199 191 181 177 185 183 168 175 179 177 182 164 152 162
173 174 174 176 179 182 184 184 184 186 192 197 199 199 200 203 209 215 221 224 227 232 238 245 247 246 247 248 251 253 252 255 257 258 258 258 256 252 251 251 252 252 254 256 252 246 245 246 246 245 248 255 257 252 251 251 248 253 256 248 217 208 207 199 194 195 193 192 193 193 203 205 196 190 191 195 182 171 182 182 174 178 174 162 163
170 171 173 175 176 181 182 181 181 183 189 195 199 199 203 207 212 218 222 228 232 238 245 250 252 252 253 253 257 261 260 261 264 264 262 262 263 264 262 261 262 260 257 256 254 248 244 245 246 246 253 260 259 252 249 247 242 245 250 244 225 205 205 206 201 194 190 191 196 202 203 204 202 195 196 197 182 181 190 183 176 178 179 174 168
167 169 171 172 173 177 181 181 180 185 189 193 198 200 207 212 215 219 222 228 233 240 247 251 257 262 263 262 266 270 273 275 277 275 271 270 271 271 269 267 269 269 265 260 257 253 247 245 246 248 253 256 251 247 247 249 246 244 242 241 241 217 210 216 214 204 198 196 199 209 208 203 207 203 200 196 184 191 199 188 182 184 182 181 174
168 169 171 170 173 176 179 180 179 187 193 195 201 204 212 217 222 229 233 238 240 245 251 256 265 268 268 269 271 276 283 288 289 286 282 281 280 277 275 274 271 267 267 265 259 255 253 249 247 247 251 254 249 239 233 239 251 255 248 243 242 225 213 214 214 213 209 203 198 206 211 208 210 209 205 199 191 198 207 195 187 187 185 183 177
175 170 170 169 173 176 177 180 182 190 194 195 201 207 217 225 232 239 243 247 249 254 257 259 262 262 265 273 283 291 293 293 290 287 286 286 285 281 278 277 271 264 263 266 262 257 257 256 253 252 253 259 262 254 242 236 247 258 252 245 239 223 209 205 209 216 216 207 198 200 209 211 211 212 209 204 199 201 208 201 193 193 188 183 176
186 171 167 168 171 176 177 182 186 192 195 196 202 210 221 232 238 241 246 252 256 261 263 263 261 260 269 282 296 303 300 296 292 288 287 288 289 287 282 277 269 262 259 262 262 260 260 261 261 259 256 256 260 266 264 256 254 256 248 244 241 227 208 199 199 209 215 212 206 200 204 210 213 213 210 208 206 205 205 204 201 200 192 182 177
188 174 168 169 170 176 179 184 187 189 194 198 202 211 222 232 240 244 251 259 263 265 267 268 269 270 282 299 309 310 306 300 295 289 287 287 290 290 288 286 278 268 262 261 262 261 261 262 264 265 264 263 260 254 250 251 257 252 242 242 236 226 214 204 199 206 215 215 212 206 202 207 213 214 209 209 210 206 205 205 206 205 195 183 181
181 172 169 171 170 174 177 179 180 179 185 192 197 201 209 221 234 243 255 267 271 274 275 276 279 283 295 314 318 310 302 295 291 289 290 292 292 291 289 287 282 275 269 267 266 265 263 263 264 264 263 258 250 242 234 239 247 238 237 277 251 229 218 212 210 213 218 218 216 211 203 202 209 213 209 209 211 206 204 206 208 207 196 185 188
171 168 168 170 168 169 169 166 166 172 177 184 190 193 200 212 226 241 264 286 290 293 292 290 292 296 305 310 302 291 285 285 286 287 290 293 294 293 290 286 280 274 270 269 268 268 265 261 261 261 259 252 245 243 238 237 242 241 250 274 267 244 228 221 222 224 221 218 216 214 208 202 205 211 210 210 210 205 203 204 206 205 195 188 192
160 168 168 166 166 163 160 158 161 172 177 179 185 192 203 214 226 245 277 300 309 313 313 316 313 312 311 295 284 280 282 286 288 288 286 287 289 289 287 284 280 275 273 271 269 268 264 259 257 256 255 253 254 254 246 237 236 233 236 257 274 255 236 222 219 223 220 212 211 214 214 208 204 208 211 210 209 206 202 201 202 200 196 193 193
139 176 172 162 162 159 156 157 157 165 171 175 182 184 195 206 224 258 292 303 311 315 317 323 319 318 315 294 287 287 287 290 291 289 284 281 281 282 281 280 278 277 276 275 272 270 267 261 256 254 253 251 252 251 245 241 232 214 205 233 246 238 237 220 211 215 214 209 209 211 213 211 206 207 212 212 209 208 202 199 199 199 199 197 193
140 189 191 163 156 154 153 157 156 158 163 173 183 184 207 237 259 285 306 308 310 310 306 306 305 310 308 295 294 292 287 288 289 287 284 281 278 277 276 276 275 274 273 273 272 270 269 266 260 255 253 248 247 245 241 238 228 211 190 198 191 198 242 221 206 214 212 208 209 207 208 210 207 206 212 213 211 209 204 199 198 199 201 199 194
146 194 202 164 151 150 152 157 158 158 159 170 187 208 268 290 296 307 330 336 333 328 319 315 316 319 311 301 301 298 291 290 290 288 285 283 281 278 275 274 274 273 271 270 270 271 270 268 263 258 253 249 248 247 241 235 230 223 215 204 154 194 243 193 188 214 211 207 207 204 204 208 207 206 211 213 212 210 206 199 198 199 201 201 198
151 192 191 155 147 150 152 156 155 155 157 149 150 207 289 288 274 274 311 332 331 331 329 328 331 334 325 316 319 317 308 303 305 303 293 286 283 282 278 274 272 271 270 270 269 270 271 270 266 260 254 251 250 249 245 237 233 230 226 224 219 215 210 161 159 202 211 209 209 206 204 206 205 204 207 211 210 209 207 202 200 200 202 204 203
141 154 140 126 130 138 145 153 154 157 165 162 163 191 214 220 234 246 258 275 302 320 326 326 329 337 336 327 329 335 330 322 321 318 306 295 291 289 286 279 272 268 269 271 271 270 271 271 269 264 257 254 249 245 246 239 231 231 229 227 226 226 226 201 183 169 182 208 212 209 207 207 205 201 203 208 209 208 208 205 204 205 204 205 206
125 121 112 108 111 115 121 129 130 132 138 147 162 177 187 197 204 221 257 273 301 325 331 331 333 339 344 341 338 341 340 334 327 319 310 303 299 297 295 289 280 275 273 273 272 271 270 270 268 263 258 255 248 243 245 241 232 230 227 225 229 230 228 223 215 200 166 174 204 207 208 208 207 204 204 208 209 209 209 207 207 210 209 207 208
110 106 103 104 106 106 105 105 103 101 100 101 105 102 96 87 80 65 39 6 339 332 332 336 343 347 350 353 351 348 344 338 330 319 309 303 299 296 296 292 287 283 278 276 273 268 266 265 262 258 254 251 247 243 243 242 238 233 224 220 223 222 217 219 224 220 202 190 184 192 197 200 207 209 209 209 210 211 212 210 210 212 212 213 211
102 101 99 96 97 95 94 93 91 92 93 92 93 89 84 80 74 65 53 41 23 7 356 355 358 358 357 1 358 351 343 335 328 318 309 303 298 294 292 289 288 285 280 278 276 269 264 262 261 258 254 252 249 244 243 242 239 233 224 218 213 207 200 204 216 222 224 209 192 186 186 187 199 206 209 211 210 212 213 211 212 211 213 217 215
100 98 94 89 89 88 89 86 82 84 86 86 88 84 79 75 70 66 58 50 45 36 25 14 9 6 3 0 354 347 339 331 324 318 311 305 300 295 292 290 289 286 281 280 279 275 270 267 265 261 255 251 248 245 244 242 240 236 230 223 216 211 207 205 208 208 210 207 190 189 193 195 199 200 206 211 210 209 210 212 213 211 212 216 215